Location: Bottens
(46.6171°N, 6.6605°E)
Time: 14:18:14
(UTC+00:00)

Cosmos 1825 - Pass Details

Date: 26 October 2021
Orbit: 501 x 504 km, 82.5° (Epoch: 04 December)

Event Time Altitude Azimuth Distance (km) Brightness Sun altitude
Rises 17:17:49 0° 8° (N) 2,610 5.6 -9.3°
Reaches altitude 10° 17:20:46 10° 33° (NNE) 1,720 4.5 -9.8°
Maximum altitude 17:22:54 14° 68° (ENE) 1,458 3.9 -10.1°
Enters shadow 17:23:13 14° 74° (ENE) 1,464 3.8 -10.2°
